Location: Baller�as
(41.9020°N, 0.1554°W)
Time: 12:06:25
(UTC+00:00)

ALOS 2 - Pass Details

Date: 10 August 2020
Orbit: 630 x 632 km, 97.9° (Epoch: 22 September)

Event Time Altitude Azimuth Distance (km) Brightness Sun altitude
Exits shadow 23:09:31 29° 15° (NNE) 1,154 4.3 -31.4°
Drops below altitude 10° 23:11:54 10° 358° (N) 2,023 6.0 -31.6°
Sets 23:14:09 0° 353° (N) 2,935 7.1 -31.7°
